Weather History for KCEF - March, 2013

Change the Weather History Date:

Sunday, March 17, 2013

  Actual Average Record
Temperature  
Mean Temperature 30 °F -  
Max Temperature 38 °F 41 °F 64 °F (2003)
Min Temperature 22 °F 25 °F 16 °F (2014)
Degree Days  
Heating Degree Days 36    
Moisture  
Dew Point 8 °F    
Average Humidity 41    
Maximum Humidity 68    
Minimum Humidity 23    
Precipitation  
Precipitation 0.00 in - - ()
Sea Level Pressure  
Sea Level Pressure 30.08 in    
Wind  
Wind Speed 10 mph (NW)    
Max Wind Speed 21 mph    
Max Gust Speed 26 mph    
Visibility 10 miles    
Events      
Averages and records for this station are not official NWS values.
T = Trace of Precipitation, MM = Missing Value Source: NWS Daily Summary

Daily Weather History Graph

Daily Weather History Graph

Search for Another Location

Airport or City:

Trip Planner

Search our weather history database for the weather conditions in past years. The results will help you decide how hot, cold, wet, or windy it might be!

Date:

Astronomy

Mar. 17, 2013 Rise Set
Actual Time 6:58 AM EDT 6:59 PM EDT
Civil Twilight 6:30 AM EDT 7:27 PM EDT
Nautical Twilight 5:57 AM EDT 7:59 PM EDT
Astronomical Twilight 5:24 AM EDT 8:33 PM EDT
Moon 10:02 AM EDT (3/17) 12:10 AM EDT (3/17)
Length of Visible Light 12h 56m
Length of Day
12h 00m
Waxing Crescent, 31% of the Moon is Illuminated
Mar 17
Waxing Crescent
Mar 19
First Quarter
Mar 27
Full
Apr 3
Last Quarter
Apr 10
New

Hourly Weather History & Observations

Time (EDT) Temp. Windchill Dew Point Humidity Pressure Visibility Wind Dir Wind Speed Gust Speed Precip Events Conditions
12:55 AM 30.0 °F 23.2 °F 13.1 °F 49% 29.91 in 10.0 mi WNW 6.9 mph - N/A   Clear
1:55 AM 27.9 °F 21.5 °F 14.9 °F 58% 29.91 in 10.0 mi West 5.8 mph - N/A   Clear
2:55 AM 26.1 °F 18.4 °F 14.7 °F 62% 29.92 in 10.0 mi WNW 6.9 mph - N/A   Clear
3:55 AM 24.8 °F 16.1 °F 14.0 °F 64% 29.94 in 10.0 mi NW 8.1 mph - N/A   Clear
4:55 AM 23.9 °F 15.0 °F 14.5 °F 67% 29.95 in 10.0 mi NNW 8.1 mph - N/A   Clear
5:55 AM 22.5 °F 15.1 °F 13.5 °F 68% 29.96 in 10.0 mi NW 5.8 mph - N/A   Clear
6:55 AM 22.8 °F 12.9 °F 10.8 °F 60% 30.01 in 10.0 mi West 9.2 mph - N/A   Clear
7:55 AM 23.9 °F 12.3 °F 10.8 °F 57% 30.05 in 10.0 mi WNW 12.7 mph - N/A   Clear
8:55 AM 26.6 °F 18.2 °F 9.5 °F 49% 30.07 in 10.0 mi NW 8.1 mph - N/A   Clear
9:55 AM 29.5 °F 21.8 °F 9.5 °F 43% 30.07 in 10.0 mi WNW 8.1 mph - N/A   Clear
10:55 AM 32.7 °F 23.0 °F 9.3 °F 38% 30.07 in 10.0 mi NW 13.8 mph - N/A   Clear
11:52 AM 35.6 °F 26.2 °F 5.0 °F 28% 30.08 in 10.0 mi North 15.0 mph 24.2 mph N/A   Partly Cloudy
11:55 AM 35.6 °F 24.5 °F 4.8 °F 28% 30.09 in 10.0 mi North 20.7 mph 26.5 mph N/A   Partly Cloudy
11:56 AM 35.6 °F 24.8 °F 5.0 °F 28% 30.08 in 10.0 mi North 19.6 mph 26.5 mph N/A   Partly Cloudy
12:55 PM 36.5 °F 27.4 °F 2.1 °F 24% 30.08 in 10.0 mi North 15.0 mph 23.0 mph N/A   Clear
1:13 PM 37.4 °F 28.5 °F 3.2 °F 24% 30.08 in 10.0 mi WNW 15.0 mph 24.2 mph N/A   Clear
1:30 PM 37.4 °F 29.3 °F 3.2 °F 24% 30.08 in 10.0 mi North 12.7 mph 23.0 mph N/A   Clear
1:55 PM 36.1 °F 26.2 °F 2.7 °F 24% 30.08 in 10.0 mi North 17.3 mph 23.0 mph N/A   Clear
2:55 PM 36.0 °F 28.0 °F 3.6 °F 26% 30.09 in 10.0 mi North 11.5 mph 19.6 mph N/A   Clear
3:55 PM 37.4 °F 28.5 °F 2.3 °F 23% 30.09 in 10.0 mi NNW 15.0 mph - N/A   Clear
4:55 PM 37.6 °F 29.6 °F 4.3 °F 25% 30.10 in 10.0 mi NW 12.7 mph - N/A   Clear
5:55 PM 36.1 °F 28.2 °F 3.6 °F 26% 30.13 in 10.0 mi WNW 11.5 mph - N/A   Clear
6:55 PM 33.3 °F 25.1 °F 2.5 °F 27% 30.17 in 10.0 mi NW 10.4 mph - N/A   Clear
7:55 PM 29.7 °F 22.8 °F 3.6 °F 33% 30.21 in 10.0 mi WNW 6.9 mph - N/A   Clear
8:55 PM 27.5 °F 21.1 °F 6.6 °F 41% 30.23 in 10.0 mi WNW 5.8 mph - N/A   Clear
9:55 PM 26.6 °F 20.0 °F 7.2 °F 44% 30.27 in 10.0 mi NW 5.8 mph - N/A   Clear
10:55 PM 25.3 °F 18.5 °F 7.9 °F 48% 30.30 in 10.0 mi WNW 5.8 mph - N/A   Clear
11:55 PM 22.3 °F 14.9 °F 11.7 °F 64% 30.32 in 10.0 mi NE 5.8 mph - N/A   Clear